Time,TemperatureF,DewpointF,PressureIn,WindDirection,WindDirectionDegrees,WindSpeedMPH,WindSpeedGustMPH,Humidity,HourlyPrecipIn,Conditions,Clouds,dailyrainin,SoftwareType,DateUTC
2013-04-17 00:02:00,43.2,39.6,29.84,SW,225,0.0,0.0,87,0.00,,,0.00,meteohub,2013-04-17 07:02:00,
2013-04-17 00:07:00,43.2,39.6,29.84,SW,225,0.0,0.0,87,0.00,,,0.00,meteohub,2013-04-17 07:07:00,
2013-04-17 00:12:00,43.2,39.6,29.84,SW,225,0.0,0.0,87,0.00,,,0.00,meteohub,2013-04-17 07:12:00,
2013-04-17 00:17:00,43.3,39.7,29.84,SW,225,0.0,2.0,87,0.00,,,0.00,meteohub,2013-04-17 07:17:00,
2013-04-17 00:22:00,43.2,39.6,29.84,West,270,2.0,2.0,87,0.00,,,0.00,meteohub,2013-04-17 07:22:00,
2013-04-17 00:27:00,43.0,39.4,29.84,SW,225,1.0,2.0,87,0.00,,,0.00,meteohub,2013-04-17 07:27:00,
2013-04-17 00:32:00,42.8,39.2,29.84,West,270,0.0,2.0,87,0.00,,,0.00,meteohub,2013-04-17 07:32:00,
2013-04-17 00:37:00,42.6,39.0,29.84,West,270,0.0,2.0,87,0.00,,,0.00,meteohub,2013-04-17 07:37:00,
2013-04-17 00:42:00,42.4,39.2,29.84,West,270,0.0,1.0,88,0.00,,,0.00,meteohub,2013-04-17 07:42:00,
2013-04-17 00:47:00,42.3,39.0,29.84,West,270,0.0,0.0,88,0.00,,,0.00,meteohub,2013-04-17 07:47:00,
2013-04-17 00:52:00,42.1,38.8,29.84,West,270,0.0,0.0,88,0.00,,,0.00,meteohub,2013-04-17 07:52:00,
2013-04-17 00:57:00,41.9,38.8,29.85,West,270,0.0,0.0,89,0.00,,,0.00,meteohub,2013-04-17 07:57:00,
2013-04-17 01:02:00,41.7,38.7,29.85,West,270,0.0,0.0,89,0.00,,,0.00,meteohub,2013-04-17 08:02:00,
2013-04-17 01:07:00,41.7,38.7,29.85,West,270,0.0,0.0,89,0.00,,,0.00,meteohub,2013-04-17 08:07:00,
2013-04-17 01:12:00,41.5,38.5,29.85,West,270,0.0,0.0,89,0.00,,,0.00,meteohub,2013-04-17 08:12:00,
2013-04-17 01:17:00,41.5,38.8,29.85,West,270,0.0,0.0,90,0.00,,,0.00,meteohub,2013-04-17 08:17:00,
2013-04-17 01:22:00,41.4,38.7,29.85,West,270,0.0,0.0,90,0.00,,,0.00,meteohub,2013-04-17 08:22:00,
2013-04-17 01:27:00,41.2,38.5,29.85,West,270,0.0,0.0,90,0.00,,,0.00,meteohub,2013-04-17 08:27:00,
2013-04-17 01:32:00,41.2,38.5,29.85,West,270,0.0,0.0,90,0.00,,,0.00,meteohub,2013-04-17 08:32:00,
2013-04-17 01:37:00,41.0,38.3,29.86,West,270,1.0,2.0,90,0.00,,,0.00,meteohub,2013-04-17 08:37:00,
2013-04-17 01:42:00,41.0,38.7,29.85,West,270,1.0,2.0,91,0.00,,,0.00,meteohub,2013-04-17 08:42:00,
2013-04-17 01:47:00,40.8,38.5,29.86,North,0,0.0,2.0,91,0.00,,,0.00,meteohub,2013-04-17 08:47:00,
2013-04-17 01:52:00,40.6,38.3,29.86,North,0,0.0,2.0,91,0.00,,,0.00,meteohub,2013-04-17 08:52:00,
2013-04-17 01:57:00,40.3,37.9,29.86,North,0,0.0,1.0,91,0.00,,,0.00,meteohub,2013-04-17 08:57:00,
2013-04-17 02:02:00,40.5,38.7,29.86,SW,225,0.0,0.0,93,0.00,,,0.00,meteohub,2013-04-17 09:02:00,
2013-04-17 02:07:00,40.3,38.1,29.86,SW,225,0.0,0.0,92,0.00,,,0.00,meteohub,2013-04-17 09:07:00,
2013-04-17 02:12:00,39.9,37.8,29.86,SW,225,0.0,0.0,92,0.00,,,0.00,meteohub,2013-04-17 09:12:00,
2013-04-17 02:17:00,39.6,37.4,29.86,SW,225,0.0,0.0,92,0.00,,,0.00,meteohub,2013-04-17 09:17:00,
2013-04-17 02:22:00,39.2,37.0,29.85,SW,225,0.0,0.0,92,0.00,,,0.00,meteohub,2013-04-17 09:22:00,
2013-04-17 02:27:00,39.2,37.4,29.85,SW,225,0.0,0.0,93,0.00,,,0.00,meteohub,2013-04-17 09:27:00,
2013-04-17 02:32:00,39.4,37.6,29.86,SW,225,0.0,0.0,93,0.00,,,0.00,meteohub,2013-04-17 09:32:00,
2013-04-17 02:37:00,39.2,37.4,29.85,SW,225,0.0,0.0,93,0.00,,,0.00,meteohub,2013-04-17 09:37:00,
2013-04-17 02:42:00,39.0,37.2,29.85,SW,225,0.0,0.0,93,0.00,,,0.00,meteohub,2013-04-17 09:42:00,
2013-04-17 02:47:00,38.8,37.0,29.85,SW,225,0.0,0.0,93,0.00,,,0.00,meteohub,2013-04-17 09:47:00,
2013-04-17 02:52:00,38.8,37.2,29.85,SW,225,0.0,0.0,94,0.00,,,0.00,meteohub,2013-04-17 09:52:00,
2013-04-17 02:57:00,38.8,37.2,29.85,SW,225,0.0,0.0,94,0.00,,,0.00,meteohub,2013-04-17 09:57:00,
2013-04-17 03:02:00,38.7,37.0,29.85,SW,225,0.0,0.0,94,0.00,,,0.00,meteohub,2013-04-17 10:02:00,
2013-04-17 03:07:00,39.0,37.4,29.85,SW,225,0.0,0.0,94,0.00,,,0.00,meteohub,2013-04-17 10:07:00,
2013-04-17 03:12:00,39.2,37.9,29.85,SW,225,0.0,0.0,95,0.00,,,0.00,meteohub,2013-04-17 10:12:00,
2013-04-17 03:17:00,39.0,37.8,29.85,SW,225,0.0,0.0,95,0.00,,,0.00,meteohub,2013-04-17 10:17:00,
2013-04-17 03:22:00,38.7,37.0,29.85,SW,225,0.0,0.0,94,0.00,,,0.00,meteohub,2013-04-17 10:22:00,
2013-04-17 03:27:00,38.5,36.9,29.86,SW,225,0.0,0.0,94,0.00,,,0.00,meteohub,2013-04-17 10:27:00,
2013-04-17 03:32:00,38.3,36.7,29.86,SW,225,0.0,0.0,94,0.00,,,0.00,meteohub,2013-04-17 10:32:00,
2013-04-17 03:37:00,38.3,37.0,29.86,SW,225,0.0,0.0,95,0.00,,,0.00,meteohub,2013-04-17 10:37:00,
2013-04-17 03:42:00,37.9,36.7,29.86,SW,225,0.0,0.0,95,0.00,,,0.00,meteohub,2013-04-17 10:42:00,
2013-04-17 03:47:00,37.9,36.7,29.86,SW,225,0.0,0.0,95,0.00,,,0.00,meteohub,2013-04-17 10:47:00,
2013-04-17 03:52:00,37.9,36.7,29.86,SW,225,0.0,0.0,95,0.00,,,0.00,meteohub,2013-04-17 10:52:00,
2013-04-17 03:57:00,37.6,36.3,29.86,SW,225,0.0,0.0,95,0.00,,,0.00,meteohub,2013-04-17 10:57:00,
2013-04-17 04:02:00,37.2,36.0,29.86,SW,225,0.0,0.0,95,0.00,,,0.00,meteohub,2013-04-17 11:02:00,
2013-04-17 04:07:00,37.0,35.8,29.86,SW,225,0.0,0.0,95,0.00,,,0.00,meteohub,2013-04-17 11:07:00,
2013-04-17 04:12:00,37.4,36.3,29.86,SW,225,0.0,0.0,96,0.00,,,0.00,meteohub,2013-04-17 11:12:00,
2013-04-17 04:17:00,37.9,36.9,29.86,SW,225,0.0,0.0,96,0.00,,,0.00,meteohub,2013-04-17 11:17:00,
2013-04-17 04:22:00,38.1,37.0,29.86,SW,225,0.0,0.0,96,0.00,,,0.00,meteohub,2013-04-17 11:22:00,
2013-04-17 04:27:00,38.1,37.0,29.86,SW,225,0.0,0.0,96,0.00,,,0.00,meteohub,2013-04-17 11:27:00,
2013-04-17 04:32:00,38.1,37.0,29.86,SW,225,0.0,0.0,96,0.00,,,0.00,meteohub,2013-04-17 11:32:00,
2013-04-17 04:37:00,38.1,37.0,29.86,SW,225,0.0,0.0,96,0.00,,,0.00,meteohub,2013-04-17 11:37:00,
2013-04-17 04:42:00,38.1,37.0,29.86,SW,225,0.0,0.0,96,0.00,,,0.00,meteohub,2013-04-17 11:42:00,
2013-04-17 04:47:00,37.9,36.9,29.86,SW,225,0.0,0.0,96,0.00,,,0.00,meteohub,2013-04-17 11:47:00,
2013-04-17 04:52:00,37.9,36.9,29.86,SW,225,0.0,0.0,96,0.00,,,0.00,meteohub,2013-04-17 11:52:00,
2013-04-17 04:57:00,37.8,36.7,29.86,SW,225,0.0,0.0,96,0.00,,,0.00,meteohub,2013-04-17 11:57:00,
2013-04-17 05:02:00,37.8,36.7,29.86,SW,225,0.0,0.0,96,0.00,,,0.00,meteohub,2013-04-17 12:02:00,
2013-04-17 05:07:00,37.8,36.7,29.86,SW,225,0.0,0.0,96,0.00,,,0.00,meteohub,2013-04-17 12:07:00,
2013-04-17 05:12:00,37.9,37.2,29.86,SW,225,0.0,0.0,97,0.00,,,0.00,meteohub,2013-04-17 12:12:00,
2013-04-17 05:17:00,37.9,37.2,29.87,South,180,0.0,0.0,97,0.00,,,0.00,meteohub,2013-04-17 12:17:00,
2013-04-17 05:22:00,37.9,37.2,29.87,NE,45,0.0,0.0,97,0.00,,,0.00,meteohub,2013-04-17 12:22:00,
2013-04-17 05:27:00,37.9,37.2,29.87,North,0,0.0,0.0,97,0.00,,,0.00,meteohub,2013-04-17 12:27:00,
2013-04-17 05:32:00,37.8,37.0,29.88,NE,45,0.0,0.0,97,0.00,,,0.00,meteohub,2013-04-17 12:32:00,
2013-04-17 05:37:00,37.8,37.0,29.87,NE,45,0.0,0.0,97,0.00,,,0.00,meteohub,2013-04-17 12:37:00,
2013-04-17 05:42:00,37.4,36.7,29.87,NE,45,0.0,0.0,97,0.00,,,0.00,meteohub,2013-04-17 12:42:00,
2013-04-17 05:47:00,37.0,36.3,29.88,NE,45,1.0,2.0,97,0.00,,,0.00,meteohub,2013-04-17 12:47:00,
2013-04-17 05:52:00,36.7,36.0,29.88,NE,45,0.0,2.0,97,0.00,,,0.00,meteohub,2013-04-17 12:52:00,
2013-04-17 05:57:00,36.5,35.8,29.88,North,0,0.0,2.0,97,0.00,,,0.00,meteohub,2013-04-17 12:57:00,
2013-04-17 06:02:00,36.3,35.6,29.88,North,0,0.0,2.0,97,0.00,,,0.00,meteohub,2013-04-17 13:02:00,
2013-04-17 06:07:00,36.3,35.6,29.88,North,0,0.0,0.0,97,0.00,,,0.00,meteohub,2013-04-17 13:07:00,
2013-04-17 06:12:00,36.3,35.8,29.88,North,0,0.0,0.0,98,0.00,,,0.00,meteohub,2013-04-17 13:12:00,
2013-04-17 06:17:00,36.3,35.8,29.89,NE,45,0.0,2.0,98,0.00,,,0.00,meteohub,2013-04-17 13:17:00,
2013-04-17 06:22:00,36.3,35.8,29.89,NE,45,0.0,2.0,98,0.00,,,0.00,meteohub,2013-04-17 13:22:00,
2013-04-17 06:27:00,36.3,35.8,29.89,NE,45,0.0,2.0,98,0.00,,,0.00,meteohub,2013-04-17 13:27:00,
2013-04-17 06:32:00,36.5,36.0,29.89,NE,45,0.0,0.0,98,0.00,,,0.00,meteohub,2013-04-17 13:32:00,
2013-04-17 06:37:00,36.3,36.1,29.89,North,0,0.0,0.0,99,0.00,,,0.00,meteohub,2013-04-17 13:37:00,
2013-04-17 06:42:00,36.3,36.1,29.89,NE,45,0.0,0.0,99,0.00,,,0.00,meteohub,2013-04-17 13:42:00,
2013-04-17 06:47:00,36.3,36.1,29.90,North,0,1.0,0.0,99,0.00,,,0.00,meteohub,2013-04-17 13:47:00,
2013-04-17 06:52:00,36.3,36.1,29.90,North,0,0.0,1.0,99,0.00,,,0.00,meteohub,2013-04-17 13:52:00,
2013-04-17 06:57:00,36.5,36.3,29.90,North,0,0.0,1.0,99,0.00,,,0.00,meteohub,2013-04-17 13:57:00,
2013-04-17 07:02:00,36.5,36.3,29.90,North,0,0.0,1.0,99,0.00,,,0.00,meteohub,2013-04-17 14:02:00,
2013-04-17 07:07:00,36.7,36.5,29.90,North,0,0.0,0.0,99,0.00,,,0.00,meteohub,2013-04-17 14:07:00,
2013-04-17 07:12:00,37.0,36.9,29.91,North,0,0.0,0.0,99,0.00,,,0.00,meteohub,2013-04-17 14:12:00,
2013-04-17 07:18:00,37.4,37.2,29.91,North,0,0.0,0.0,99,0.00,,,0.00,meteohub,2013-04-17 14:18:00,
2013-04-17 07:23:00,37.4,37.2,29.91,North,0,0.0,0.0,99,0.00,,,0.00,meteohub,2013-04-17 14:23:00,
2013-04-17 07:28:00,37.6,37.4,29.91,North,0,0.0,0.0,99,0.00,,,0.00,meteohub,2013-04-17 14:28:00,
2013-04-17 07:34:00,37.9,37.8,29.91,East,90,2.0,0.0,99,0.00,,,0.00,meteohub,2013-04-17 14:34:00,
2013-04-17 07:39:00,38.1,37.9,29.91,East,90,2.0,2.0,99,0.00,,,0.00,meteohub,2013-04-17 14:39:00,
2013-04-17 07:44:00,38.3,38.1,29.92,East,90,2.0,2.0,99,0.00,,,0.00,meteohub,2013-04-17 14:44:00,
2013-04-17 07:49:00,38.7,38.5,29.91,East,90,0.0,2.0,99,0.00,,,0.00,meteohub,2013-04-17 14:49:00,
2013-04-17 07:54:00,39.2,39.0,29.92,East,90,0.0,2.0,99,0.00,,,0.00,meteohub,2013-04-17 14:54:00,
2013-04-17 07:59:00,40.1,39.9,29.93,East,90,2.0,2.0,99,0.00,,,0.00,meteohub,2013-04-17 14:59:00,
2013-04-17 08:04:00,41.0,40.8,29.92,NE,45,0.0,2.0,99,0.00,,,0.00,meteohub,2013-04-17 15:04:00,
2013-04-17 08:10:00,41.5,40.8,29.93,NE,45,1.0,2.0,97,0.00,,,0.00,meteohub,2013-04-17 15:10:00,
2013-04-17 08:15:00,41.9,41.2,29.93,NE,45,0.0,2.0,97,0.00,,,0.00,meteohub,2013-04-17 15:15:00,
2013-04-17 08:20:00,42.1,41.0,29.93,NE,45,0.0,2.0,96,0.00,,,0.00,meteohub,2013-04-17 15:20:00,
2013-04-17 08:25:00,42.3,41.0,29.93,South,180,2.0,2.0,95,0.00,,,0.00,meteohub,2013-04-17 15:25:00,
2013-04-17 08:30:00,43.0,41.7,29.93,SW,225,0.0,2.0,95,0.00,,,0.00,meteohub,2013-04-17 15:30:00,
2013-04-17 08:35:00,43.7,42.1,29.93,SE,135,0.0,2.0,94,0.00,,,0.00,meteohub,2013-04-17 15:35:00,
2013-04-17 08:40:00,44.4,42.4,29.93,SE,135,0.0,2.0,93,0.00,,,0.00,meteohub,2013-04-17 15:40:00,
2013-04-17 08:45:00,44.6,42.1,29.94,SW,225,0.0,3.0,91,0.00,,,0.00,meteohub,2013-04-17 15:45:00,
2013-04-17 08:50:00,44.8,42.1,29.94,South,180,4.0,4.0,90,0.00,,,0.00,meteohub,2013-04-17 15:50:00,
2013-04-17 08:55:00,44.8,41.4,29.93,NE,45,2.0,4.0,88,0.00,,,0.00,meteohub,2013-04-17 15:55:00,
2013-04-17 09:00:00,45.0,41.5,29.93,SW,225,2.0,4.0,88,0.00,,,0.00,meteohub,2013-04-17 16:00:00,
2013-04-17 09:05:00,45.1,41.7,29.93,SW,225,3.0,4.0,88,0.00,,,0.00,meteohub,2013-04-17 16:05:00,
2013-04-17 09:10:00,46.6,43.5,29.93,NE,45,2.0,4.0,89,0.00,,,0.00,meteohub,2013-04-17 16:10:00,
2013-04-17 09:15:00,48.2,44.6,29.94,South,180,2.0,4.0,87,0.00,,,0.00,meteohub,2013-04-17 16:15:00,
2013-04-17 09:21:00,49.3,43.3,29.94,NE,45,2.0,3.0,80,0.00,,,0.00,meteohub,2013-04-17 16:21:00,
2013-04-17 09:26:00,50.0,44.1,29.94,SW,225,3.0,3.0,80,0.00,,,0.00,meteohub,2013-04-17 16:26:00,
2013-04-17 09:31:00,50.2,43.5,29.94,SE,135,3.0,3.0,78,0.00,,,0.00,meteohub,2013-04-17 16:31:00,
2013-04-17 09:36:00,50.2,43.5,29.94,East,90,3.0,4.0,78,0.00,,,0.00,meteohub,2013-04-17 16:36:00,
2013-04-17 09:41:00,50.5,43.9,29.94,NW,315,2.0,5.0,78,0.00,,,0.00,meteohub,2013-04-17 16:41:00,
2013-04-17 09:46:00,50.7,43.5,29.93,South,180,2.0,5.0,76,0.00,,,0.00,meteohub,2013-04-17 16:46:00,
2013-04-17 09:51:00,51.3,44.2,29.94,SW,225,5.0,5.0,77,0.00,,,0.00,meteohub,2013-04-17 16:51:00,
2013-04-17 09:56:00,50.7,43.7,29.94,SW,225,3.0,6.0,77,0.00,,,0.00,meteohub,2013-04-17 16:56:00,
2013-04-17 10:01:00,52.0,44.2,29.93,North,0,3.0,6.0,75,0.00,,,0.00,meteohub,2013-04-17 17:01:00,
2013-04-17 10:06:00,51.6,43.3,29.94,SW,225,3.0,6.0,73,0.00,,,0.00,meteohub,2013-04-17 17:06:00,
2013-04-17 10:11:00,51.4,44.1,29.94,South,180,4.0,5.0,76,0.00,,,0.00,meteohub,2013-04-17 17:11:00,
2013-04-17 10:16:00,54.3,44.8,29.94,NE,45,6.0,6.0,70,0.00,,,0.00,meteohub,2013-04-17 17:16:00,
2013-04-17 10:22:00,55.0,43.5,29.94,NE,45,7.0,7.0,65,0.00,,,0.00,meteohub,2013-04-17 17:22:00,
2013-04-17 10:27:00,54.1,43.9,29.93,North,0,1.0,7.0,68,0.00,,,0.00,meteohub,2013-04-17 17:27:00,
2013-04-17 10:32:00,53.4,43.5,29.94,SW,225,4.0,7.0,69,0.00,,,0.00,meteohub,2013-04-17 17:32:00,
2013-04-17 10:37:00,52.3,43.5,29.94,SW,225,5.0,7.0,72,0.00,,,0.00,meteohub,2013-04-17 17:37:00,
2013-04-17 10:42:00,51.6,43.0,29.94,SW,225,4.0,6.0,72,0.00,,,0.00,meteohub,2013-04-17 17:42:00,
2013-04-17 10:47:00,51.4,43.2,29.94,SW,225,4.0,6.0,73,0.00,,,0.00,meteohub,2013-04-17 17:47:00,
2013-04-17 10:52:00,52.0,43.5,29.94,East,90,3.0,6.0,73,0.00,,,0.00,meteohub,2013-04-17 17:52:00,
2013-04-17 10:57:00,53.4,43.5,29.94,SE,135,4.0,6.0,69,0.00,,,0.00,meteohub,2013-04-17 17:57:00,
2013-04-17 11:02:00,54.5,43.3,29.94,NE,45,3.0,6.0,66,0.00,,,0.00,meteohub,2013-04-17 18:02:00,
2013-04-17 11:07:00,55.6,44.4,29.94,South,180,4.0,5.0,66,0.00,,,0.00,meteohub,2013-04-17 18:07:00,
2013-04-17 11:12:00,54.9,43.3,29.94,NE,45,4.0,5.0,65,0.00,,,0.00,meteohub,2013-04-17 18:12:00,
2013-04-17 11:17:00,56.1,44.1,29.94,East,90,2.0,7.0,64,0.00,,,0.00,meteohub,2013-04-17 18:17:00,
2013-04-17 11:22:00,56.8,43.5,29.94,NNE,23,4.0,7.0,61,0.00,,,0.00,meteohub,2013-04-17 18:22:00,
2013-04-17 11:27:00,57.2,43.5,29.94,South,180,4.0,8.0,60,0.00,,,0.00,meteohub,2013-04-17 18:27:00,
2013-04-17 11:32:00,57.2,43.5,29.94,NE,45,3.0,8.0,60,0.00,,,0.00,meteohub,2013-04-17 18:32:00,
2013-04-17 11:38:00,58.1,45.5,29.94,SE,135,3.0,8.0,63,0.00,,,0.00,meteohub,2013-04-17 18:38:00,
2013-04-17 11:43:00,58.5,43.7,29.93,SW,225,4.0,8.0,58,0.00,,,0.00,meteohub,2013-04-17 18:43:00,
2013-04-17 11:48:00,57.9,42.8,29.94,East,90,4.0,8.0,57,0.00,,,0.00,meteohub,2013-04-17 18:48:00,
2013-04-17 11:53:00,57.7,43.0,29.94,NE,45,4.0,8.0,58,0.00,,,0.00,meteohub,2013-04-17 18:53:00,
2013-04-17 11:58:00,59.0,43.7,29.93,South,180,6.0,8.0,57,0.00,,,0.00,meteohub,2013-04-17 18:58:00,
2013-04-17 12:03:00,59.4,45.0,29.93,East,90,4.0,6.0,59,0.00,,,0.00,meteohub,2013-04-17 19:03:00,
2013-04-17 12:08:00,61.2,46.8,29.93,SW,225,4.0,6.0,59,0.00,,,0.00,meteohub,2013-04-17 19:08:00,
2013-04-17 12:13:00,60.3,45.9,29.93,SW,225,4.0,6.0,59,0.00,,,0.00,meteohub,2013-04-17 19:13:00,
2013-04-17 12:18:00,59.7,45.9,29.93,SE,135,3.0,6.0,60,0.00,,,0.00,meteohub,2013-04-17 19:18:00,
2013-04-17 12:24:00,60.3,45.5,29.93,South,180,4.0,6.0,58,0.00,,,0.00,meteohub,2013-04-17 19:24:00,
2013-04-17 12:29:00,61.2,44.8,29.93,NE,45,8.0,8.0,55,0.00,,,0.00,meteohub,2013-04-17 19:29:00,
2013-04-17 12:34:00,61.7,45.0,29.93,SW,225,5.0,7.0,54,0.00,,,0.00,meteohub,2013-04-17 19:34:00,
2013-04-17 12:39:00,59.5,43.9,29.92,SW,225,10.0,10.0,56,0.00,,,0.00,meteohub,2013-04-17 19:39:00,
2013-04-17 12:44:00,59.5,45.1,29.93,SE,135,2.0,10.0,59,0.00,,,0.00,meteohub,2013-04-17 19:44:00,
2013-04-17 12:49:00,61.9,47.5,29.92,North,0,4.0,10.0,59,0.00,,,0.00,meteohub,2013-04-17 19:49:00,
2013-04-17 12:55:00,62.8,45.9,29.92,South,180,4.0,10.0,54,0.00,,,0.00,meteohub,2013-04-17 19:55:00,
2013-04-17 13:00:00,59.2,43.5,29.92,SW,225,7.0,8.0,56,0.00,,,0.00,meteohub,2013-04-17 20:00:00,
2013-04-17 13:05:00,57.2,43.9,29.92,SE,135,3.0,10.0,61,0.00,,,0.00,meteohub,2013-04-17 20:05:00,
2013-04-17 13:10:00,57.6,43.7,29.91,East,90,4.0,10.0,60,0.00,,,0.00,meteohub,2013-04-17 20:10:00,
2013-04-17 13:15:00,58.6,44.4,29.91,South,180,2.0,5.0,59,0.00,,,0.00,meteohub,2013-04-17 20:15:00,
2013-04-17 13:21:00,58.5,43.7,29.91,SW,225,4.0,5.0,58,0.00,,,0.00,meteohub,2013-04-17 20:21:00,
2013-04-17 13:26:00,59.5,44.2,29.91,West,270,2.0,5.0,57,0.00,,,0.00,meteohub,2013-04-17 20:26:00,
2013-04-17 13:31:00,59.9,43.7,29.91,East,90,2.0,7.0,55,0.00,,,0.00,meteohub,2013-04-17 20:31:00,
2013-04-17 13:36:00,59.5,41.9,29.91,SW,225,1.0,8.0,52,0.00,,,0.00,meteohub,2013-04-17 20:36:00,
2013-04-17 13:41:00,59.2,41.0,29.90,North,0,1.0,8.0,51,0.00,,,0.00,meteohub,2013-04-17 20:41:00,
2013-04-17 13:47:00,59.5,42.8,29.90,East,90,2.0,8.0,54,0.00,,,0.00,meteohub,2013-04-17 20:47:00,
2013-04-17 13:52:00,59.7,42.1,29.91,East,90,4.0,4.0,52,0.00,,,0.00,meteohub,2013-04-17 20:52:00,
2013-04-17 13:57:00,59.5,41.9,29.91,NE,45,1.0,4.0,52,0.00,,,0.00,meteohub,2013-04-17 20:57:00,
2013-04-17 14:02:00,59.9,41.7,29.91,North,0,2.0,4.0,51,0.00,,,0.00,meteohub,2013-04-17 21:02:00,
2013-04-17 14:07:00,60.1,43.3,29.91,SE,135,2.0,4.0,54,0.00,,,0.00,meteohub,2013-04-17 21:07:00,
2013-04-17 14:12:00,59.4,42.3,29.91,NE,45,3.0,3.0,53,0.00,,,0.00,meteohub,2013-04-17 21:12:00,
2013-04-17 14:17:00,58.3,42.6,29.90,East,90,3.0,5.0,56,0.00,,,0.00,meteohub,2013-04-17 21:17:00,
2013-04-17 14:22:00,57.6,43.0,29.90,NE,45,3.0,5.0,58,0.00,,,0.00,meteohub,2013-04-17 21:22:00,
2013-04-17 14:27:00,57.4,42.3,29.91,North,0,2.0,5.0,57,0.00,,,0.00,meteohub,2013-04-17 21:27:00,
2013-04-17 14:32:00,57.4,42.8,29.90,North,0,3.0,4.0,58,0.00,,,0.00,meteohub,2013-04-17 21:32:00,
2013-04-17 14:37:00,56.8,42.6,29.91,South,180,4.0,4.0,59,0.00,,,0.00,meteohub,2013-04-17 21:37:00,
2013-04-17 14:42:00,55.8,42.4,29.90,SW,225,8.0,8.0,61,0.00,,,0.00,meteohub,2013-04-17 21:42:00,
2013-04-17 14:47:00,55.0,43.2,29.90,SW,225,2.0,10.0,64,0.00,,,0.00,meteohub,2013-04-17 21:47:00,
2013-04-17 14:52:00,55.6,42.3,29.91,South,180,6.0,10.0,61,0.00,,,0.00,meteohub,2013-04-17 21:52:00,
2013-04-17 14:57:00,55.8,42.4,29.90,SW,225,2.0,9.0,61,0.00,,,0.00,meteohub,2013-04-17 21:57:00,
2013-04-17 15:02:00,56.1,43.3,29.90,North,0,6.0,9.0,62,0.00,,,0.00,meteohub,2013-04-17 22:02:00,
2013-04-17 15:08:00,56.3,41.7,29.90,SW,225,4.0,9.0,58,0.00,,,0.00,meteohub,2013-04-17 22:08:00,
2013-04-17 15:13:00,56.1,41.9,29.90,SW,225,4.0,8.0,59,0.00,,,0.00,meteohub,2013-04-17 22:13:00,
2013-04-17 15:18:00,56.7,42.1,29.90,SW,225,5.0,6.0,58,0.00,,,0.00,meteohub,2013-04-17 22:18:00,
2013-04-17 15:23:00,57.0,43.3,29.91,SW,225,2.0,6.0,60,0.00,,,0.00,meteohub,2013-04-17 22:23:00,
2013-04-17 15:28:00,57.4,42.8,29.90,SW,225,3.0,6.0,58,0.00,,,0.00,meteohub,2013-04-17 22:28:00,
2013-04-17 15:33:00,57.7,43.9,29.90,SW,225,3.0,5.0,60,0.00,,,0.00,meteohub,2013-04-17 22:33:00,
2013-04-17 15:38:00,58.1,42.4,29.90,North,0,2.0,4.0,56,0.00,,,0.00,meteohub,2013-04-17 22:38:00,
2013-04-17 15:43:00,58.3,44.1,29.90,East,90,3.0,4.0,59,0.00,,,0.00,meteohub,2013-04-17 22:43:00,
2013-04-17 15:48:00,58.5,44.6,29.90,NE,45,3.0,4.0,60,0.00,,,0.00,meteohub,2013-04-17 22:48:00,
2013-04-17 15:54:00,57.7,43.9,29.89,NE,45,4.0,5.0,60,0.00,,,0.00,meteohub,2013-04-17 22:54:00,
2013-04-17 15:59:00,57.7,44.4,29.90,NE,45,4.0,5.0,61,0.00,,,0.00,meteohub,2013-04-17 22:59:00,
2013-04-17 16:04:00,57.6,43.7,29.89,NE,45,3.0,5.0,60,0.00,,,0.00,meteohub,2013-04-17 23:04:00,
2013-04-17 16:09:00,57.4,44.4,29.89,NE,45,4.0,5.0,62,0.00,,,0.00,meteohub,2013-04-17 23:09:00,
2013-04-17 16:14:00,57.4,44.1,29.89,East,90,2.0,5.0,61,0.00,,,0.00,meteohub,2013-04-17 23:14:00,
2013-04-17 16:19:00,58.1,44.2,29.89,South,180,2.0,5.0,60,0.00,,,0.00,meteohub,2013-04-17 23:19:00,
2013-04-17 16:24:00,58.1,43.9,29.89,North,0,2.0,5.0,59,0.00,,,0.00,meteohub,2013-04-17 23:24:00,
2013-04-17 16:30:00,57.2,41.7,29.89,SW,225,10.0,10.0,56,0.00,,,0.00,meteohub,2013-04-17 23:30:00,
2013-04-17 16:35:00,56.7,42.4,29.89,SW,225,8.0,8.0,59,0.00,,,0.00,meteohub,2013-04-17 23:35:00,
2013-04-17 16:40:00,56.3,43.5,29.89,SW,225,4.0,10.0,62,0.00,,,0.00,meteohub,2013-04-17 23:40:00,
2013-04-17 16:45:00,56.1,42.8,29.89,SW,225,3.0,10.0,61,0.00,,,0.00,meteohub,2013-04-17 23:45:00,
2013-04-17 16:50:00,55.9,43.9,29.89,SW,225,2.0,6.0,64,0.00,,,0.00,meteohub,2013-04-17 23:50:00,
2013-04-17 16:55:00,55.9,43.5,29.89,SW,225,2.0,4.0,63,0.00,,,0.00,meteohub,2013-04-17 23:55:00,
2013-04-17 17:01:00,55.9,42.6,29.89,SW,225,4.0,5.0,61,0.00,,,0.00,meteohub,2013-04-18 00:01:00,
2013-04-17 17:06:00,55.9,42.3,29.89,West,270,2.0,5.0,60,0.00,,,0.00,meteohub,2013-04-18 00:06:00,
2013-04-17 17:11:00,56.3,42.1,29.89,SW,225,3.0,4.0,59,0.00,,,0.00,meteohub,2013-04-18 00:11:00,
2013-04-17 17:16:00,56.5,42.8,29.89,SW,225,2.0,4.0,60,0.00,,,0.00,meteohub,2013-04-18 00:16:00,
2013-04-17 17:21:00,56.7,42.1,29.88,SW,225,4.0,4.0,58,0.00,,,0.00,meteohub,2013-04-18 00:21:00,
2013-04-17 17:26:00,56.5,43.2,29.88,SW,225,3.0,4.0,61,0.00,,,0.00,meteohub,2013-04-18 00:26:00,
2013-04-17 17:31:00,56.5,43.2,29.88,South,180,4.0,4.0,61,0.00,,,0.00,meteohub,2013-04-18 00:31:00,
2013-04-17 17:36:00,56.5,41.9,29.89,SW,225,6.0,6.0,58,0.00,,,0.00,meteohub,2013-04-18 00:36:00,
2013-04-17 17:42:00,56.7,42.4,29.88,SW,225,3.0,7.0,59,0.00,,,0.00,meteohub,2013-04-18 00:42:00,
2013-04-17 17:47:00,57.0,42.8,29.88,SW,225,2.0,7.0,59,0.00,,,0.00,meteohub,2013-04-18 00:47:00,
2013-04-17 17:52:00,57.4,41.4,29.88,SW,225,5.0,6.0,55,0.00,,,0.00,meteohub,2013-04-18 00:52:00,
2013-04-17 17:57:00,57.6,43.0,29.88,South,180,4.0,5.0,58,0.00,,,0.00,meteohub,2013-04-18 00:57:00,
2013-04-17 18:02:00,57.7,41.2,29.88,SW,225,5.0,7.0,54,0.00,,,0.00,meteohub,2013-04-18 01:02:00,
2013-04-17 18:07:00,57.7,41.2,29.88,South,180,5.0,10.0,54,0.00,,,0.00,meteohub,2013-04-18 01:07:00,
2013-04-17 18:12:00,57.9,40.8,29.88,SW,225,5.0,10.0,53,0.00,,,0.00,meteohub,2013-04-18 01:12:00,
2013-04-17 18:17:00,58.3,41.2,29.89,SW,225,10.0,10.0,53,0.00,,,0.00,meteohub,2013-04-18 01:17:00,
2013-04-17 18:22:00,57.9,40.8,29.88,South,180,11.0,11.0,53,0.00,,,0.00,meteohub,2013-04-18 01:22:00,
2013-04-17 18:27:00,57.0,41.0,29.89,South,180,8.0,11.0,55,0.00,,,0.00,meteohub,2013-04-18 01:27:00,
2013-04-17 18:32:00,55.9,41.4,29.89,SW,225,9.0,11.0,58,0.00,,,0.00,meteohub,2013-04-18 01:32:00,
2013-04-17 18:37:00,55.6,41.0,29.89,West,270,7.0,14.0,58,0.00,,,0.00,meteohub,2013-04-18 01:37:00,
2013-04-17 18:42:00,54.9,40.3,29.89,SW,225,9.0,14.0,58,0.00,,,0.00,meteohub,2013-04-18 01:42:00,
2013-04-17 18:47:00,54.3,40.3,29.89,SW,225,8.0,13.0,59,0.00,,,0.00,meteohub,2013-04-18 01:47:00,
2013-04-17 18:52:00,54.1,40.6,29.89,South,180,6.0,13.0,60,0.00,,,0.00,meteohub,2013-04-18 01:52:00,
2013-04-17 18:57:00,53.8,40.6,29.89,SW,225,7.0,13.0,61,0.00,,,0.00,meteohub,2013-04-18 01:57:00,
2013-04-17 19:02:00,53.6,40.8,29.89,SW,225,6.0,11.0,62,0.00,,,0.00,meteohub,2013-04-18 02:02:00,
2013-04-17 19:07:00,53.1,40.5,29.89,SW,225,8.0,10.0,62,0.00,,,0.00,meteohub,2013-04-18 02:07:00,
2013-04-17 19:12:00,52.7,40.5,29.89,SW,225,7.0,9.0,63,0.00,,,0.00,meteohub,2013-04-18 02:12:00,
2013-04-17 19:17:00,52.2,40.8,29.89,SW,225,8.0,10.0,65,0.00,,,0.00,meteohub,2013-04-18 02:17:00,
2013-04-17 19:22:00,51.8,40.8,29.89,South,180,11.0,11.0,66,0.00,,,0.00,meteohub,2013-04-18 02:22:00,
2013-04-17 19:27:00,51.4,40.8,29.88,West,270,7.0,14.0,67,0.00,,,0.00,meteohub,2013-04-18 02:27:00,
2013-04-17 19:32:00,51.3,41.4,29.88,SW,225,9.0,14.0,69,0.00,,,0.00,meteohub,2013-04-18 02:32:00,
2013-04-17 19:37:00,50.9,41.5,29.89,SW,225,5.0,14.0,70,0.00,,,0.00,meteohub,2013-04-18 02:37:00,
2013-04-17 19:42:00,50.7,41.7,29.88,SW,225,7.0,9.0,71,0.00,,,0.00,meteohub,2013-04-18 02:42:00,
2013-04-17 19:47:00,50.4,41.7,29.88,SW,225,6.0,9.0,72,0.00,,,0.00,meteohub,2013-04-18 02:47:00,
2013-04-17 19:53:00,50.2,41.5,29.88,SW,225,8.0,13.0,72,0.00,,,0.00,meteohub,2013-04-18 02:53:00,
2013-04-17 19:58:00,50.0,41.4,29.89,South,180,9.0,13.0,72,0.00,,,0.00,meteohub,2013-04-18 02:58:00,
2013-04-17 20:03:00,49.8,41.5,29.88,SW,225,4.0,13.0,73,0.00,,,0.00,meteohub,2013-04-18 03:03:00,
2013-04-17 20:08:00,49.6,41.4,29.89,SW,225,6.0,13.0,73,0.00,,,0.00,meteohub,2013-04-18 03:08:00,
2013-04-17 20:13:00,49.5,41.5,29.88,South,180,8.0,13.0,74,0.00,,,0.00,meteohub,2013-04-18 03:13:00,
2013-04-17 20:18:00,49.3,41.4,29.88,SW,225,13.0,13.0,74,0.00,,,0.00,meteohub,2013-04-18 03:18:00,
2013-04-17 20:24:00,49.1,40.8,29.88,SW,225,8.0,13.0,73,0.00,,,0.00,meteohub,2013-04-18 03:24:00,
2013-04-17 20:29:00,48.9,41.0,29.88,SW,225,6.0,13.0,74,0.00,,,0.00,meteohub,2013-04-18 03:29:00,
2013-04-17 20:34:00,48.7,40.8,29.88,South,180,7.0,13.0,74,0.00,,,0.00,meteohub,2013-04-18 03:34:00,
2013-04-17 20:39:00,48.7,40.8,29.88,SSW,203,9.0,11.0,74,0.00,,,0.00,meteohub,2013-04-18 03:39:00,
2013-04-17 20:44:00,48.6,41.0,29.88,SW,225,6.0,11.0,75,0.00,,,0.00,meteohub,2013-04-18 03:44:00,
2013-04-17 20:49:00,48.4,41.2,29.89,SW,225,8.0,11.0,76,0.00,,,0.00,meteohub,2013-04-18 03:49:00,
2013-04-17 20:54:00,48.2,41.4,29.89,SW,225,8.0,11.0,77,0.00,,,0.00,meteohub,2013-04-18 03:54:00,
2013-04-17 20:59:00,48.2,41.4,29.89,SSW,203,10.0,12.0,77,0.00,,,0.00,meteohub,2013-04-18 03:59:00,
2013-04-17 21:01:00,48.2,41.4,29.89,South,180,11.0,12.0,77,0.00,,,0.00,meteohub,2013-04-18 04:01:00,
2013-04-17 21:02:00,48.2,41.4,29.89,South,180,11.0,12.0,77,0.00,,,0.00,meteohub,2013-04-18 04:02:00,
2013-04-17 21:03:00,48.0,41.2,29.89,SW,225,7.0,12.0,77,0.00,,,0.00,meteohub,2013-04-18 04:03:00,
2013-04-17 21:07:00,48.0,41.2,29.89,South,180,8.0,11.0,77,0.00,,,0.00,meteohub,2013-04-18 04:07:00,
2013-04-17 21:12:00,47.8,41.0,29.89,SW,225,8.0,11.0,77,0.00,,,0.00,meteohub,2013-04-18 04:12:00,
2013-04-17 21:17:00,47.8,41.0,29.89,South,180,8.0,11.0,77,0.00,,,0.00,meteohub,2013-04-18 04:17:00,
2013-04-17 21:22:00,47.8,41.0,29.89,SW,225,7.0,11.0,77,0.00,,,0.00,meteohub,2013-04-18 04:22:00,
2013-04-17 21:27:00,47.8,41.0,29.90,South,180,5.0,9.0,77,0.00,,,0.00,meteohub,2013-04-18 04:27:00,
2013-04-17 21:32:00,47.8,41.0,29.90,SW,225,6.0,8.0,77,0.00,,,0.00,meteohub,2013-04-18 04:32:00,
2013-04-17 21:37:00,47.8,41.0,29.90,SW,225,7.0,7.0,77,0.00,,,0.00,meteohub,2013-04-18 04:37:00,
2013-04-17 21:43:00,47.8,41.0,29.90,South,180,7.0,8.0,77,0.00,,,0.00,meteohub,2013-04-18 04:43:00,
2013-04-17 21:48:00,47.7,41.2,29.90,SW,225,6.0,8.0,78,0.00,,,0.00,meteohub,2013-04-18 04:48:00,
2013-04-17 21:53:00,47.7,41.2,29.90,SW,225,3.0,8.0,78,0.00,,,0.00,meteohub,2013-04-18 04:53:00,
2013-04-17 21:58:00,47.5,41.0,29.90,SW,225,7.0,8.0,78,0.00,,,0.00,meteohub,2013-04-18 04:58:00,
2013-04-17 22:03:00,47.5,41.0,29.90,SW,225,6.0,6.0,78,0.00,,,0.00,meteohub,2013-04-18 05:03:00,
2013-04-17 22:09:00,47.5,41.0,29.90,SW,225,4.0,8.0,78,0.00,,,0.00,meteohub,2013-04-18 05:09:00,
2013-04-17 22:14:00,47.5,41.0,29.90,SW,225,6.0,8.0,78,0.00,,,0.00,meteohub,2013-04-18 05:14:00,
2013-04-17 22:19:00,47.5,41.0,29.90,South,180,8.0,10.0,78,0.00,,,0.00,meteohub,2013-04-18 05:19:00,
2013-04-17 22:24:00,47.3,41.2,29.90,SW,225,6.0,11.0,79,0.00,,,0.00,meteohub,2013-04-18 05:24:00,
2013-04-17 22:29:00,47.3,40.8,29.89,SW,225,7.0,11.0,78,0.00,,,0.00,meteohub,2013-04-18 05:29:00,
2013-04-17 22:35:00,47.3,40.8,29.90,SW,225,7.0,11.0,78,0.00,,,0.00,meteohub,2013-04-18 05:35:00,
2013-04-17 22:40:00,47.3,40.8,29.89,SW,225,9.0,10.0,78,0.00,,,0.00,meteohub,2013-04-18 05:40:00,
2013-04-17 22:45:00,47.1,41.0,29.89,SW,225,6.0,10.0,79,0.00,,,0.00,meteohub,2013-04-18 05:45:00,
2013-04-17 22:50:00,47.1,41.4,29.89,South,180,6.0,10.0,80,0.00,,,0.00,meteohub,2013-04-18 05:50:00,
2013-04-17 22:55:00,46.9,41.2,29.90,SW,225,8.0,10.0,80,0.00,,,0.00,meteohub,2013-04-18 05:55:00,
2013-04-17 23:01:00,46.9,41.2,29.89,SW,225,5.0,8.0,80,0.00,,,0.00,meteohub,2013-04-18 06:01:00,
2013-04-17 23:06:00,46.9,41.2,29.88,SW,225,5.0,8.0,80,0.00,,,0.00,meteohub,2013-04-18 06:06:00,
2013-04-17 23:11:00,46.9,41.2,29.89,SW,225,4.0,8.0,80,0.00,,,0.00,meteohub,2013-04-18 06:11:00,
2013-04-17 23:16:00,46.9,41.2,29.89,SW,225,2.0,8.0,80,0.00,,,0.00,meteohub,2013-04-18 06:16:00,
2013-04-17 23:21:00,46.9,41.2,29.89,South,180,4.0,6.0,80,0.00,,,0.00,meteohub,2013-04-18 06:21:00,
2013-04-17 23:27:00,46.8,41.0,29.89,North,0,2.0,6.0,80,0.00,,,0.00,meteohub,2013-04-18 06:27:00,
2013-04-17 23:32:00,46.8,41.0,29.89,SW,225,3.0,6.0,80,0.00,,,0.00,meteohub,2013-04-18 06:32:00,
2013-04-17 23:37:00,46.8,41.2,29.89,SW,225,4.0,5.0,81,0.00,,,0.00,meteohub,2013-04-18 06:37:00,
2013-04-17 23:42:00,46.8,41.2,29.89,West,270,4.0,5.0,81,0.00,,,0.00,meteohub,2013-04-18 06:42:00,
2013-04-17 23:47:00,46.9,41.2,29.89,SW,225,3.0,11.0,80,0.00,,,0.00,meteohub,2013-04-18 06:47:00,
2013-04-17 23:52:00,46.9,41.2,29.89,SW,225,4.0,11.0,80,0.00,,,0.00,meteohub,2013-04-18 06:52:00,
2013-04-17 23:57:00,46.9,41.2,29.89,SW,225,3.0,11.0,80,0.00,,,0.00,meteohub,2013-04-18 06:57:00,